Location: Fontet
(44.5594°N, 0.0308°W)
Time: 14:20:34
(UTC+00:00)

Daily predictions for brighter satellites

Satellite Brightness Start Highest point End
(mag) Time Altitude Azimuth Time Altitude Azimuth Time Altitude Azimuth
USA 32 4.0 17:22:28 10° S 17:27:40 72° E 17:32:53 10° N
USA 267 3.4 17:21:06 10° NE 17:27:41 87° SE 17:34:13 10° SW
ISS -2.7 17:26:40 10° W 17:29:51 37° NNW 17:33:02 10° NE
Cosmos 44 3.3 17:26:06 10° SW 17:30:40 74° NW 17:35:06 10° NNE
PSLV R/B 4.1 17:28:07 10° N 17:32:13 77° WNW 17:36:20 10° SSW
CZ-4 R/B 2.4 17:29:41 10° ESE 17:33:06 26° ENE 17:36:35 10° N
ATLAS CENTAUR R/B 1.2 17:37:19 10° NNW 17:41:18 57° NE 17:44:58 10° SE
CSL-04 Rocket 4.4 17:39:15 10° SE 17:44:06 32° ENE 17:48:59 10° N
Cosmos 1703 3.4 17:40:59 10° S 17:44:50 54° E 17:48:44 10° NNE
Cosmos 1953 Rocket 3.6 17:41:20 10° S 17:45:48 74° E 17:50:17 10° NNE
Cosmos 2341 Rocket 4.2 17:39:29 10° S 17:45:51 82° W 17:52:13 10° N
Cosmos 1455 2.1 17:43:21 10° N 17:47:10 79° E 17:50:55 10° SSE
Starlink AR 4.4 17:46:53 10° NNW 17:48:52 18° NNE 17:50:26 12° NE
Cosmos 2237 Rocket 4.1 17:44:38 10° NW 17:49:40 34° WSW 17:54:40 10° SSW
Cosmos 1758 Rocket 4.2 17:45:27 10° SSW 17:49:41 59° W 17:53:58 10° N
Cosmos 1842 Rocket 4.3 17:46:51 10° N 17:50:52 31° ENE 17:54:53 10° SE
COSMO-SKYMED 1 2.8 17:46:56 10° NNE 17:51:09 47° E 17:55:20 10° S
Cosmos 864 Rocket 4.5 17:48:19 10° S 17:54:22 66° E 18:00:27 10° NNE
SMAP 4.2 17:50:43 10° S 17:55:12 48° W 17:59:43 10° NNW
Cosmos 1339 Rocket 4.4 17:49:59 10° N 17:56:08 80° E 18:02:18 10° S
Shenzhou-11 Module 2.2 17:55:06 10° W 17:57:45 53° S 17:59:59 13° ESE
Starlink H 4.5 17:55:40 10° NW 17:58:23 23° NNE 18:00:12 15° ENE
Iridium 96 4.4 17:56:02 10° NNW 17:58:30 56° W 18:01:05 10° S
Meteor 2-10 Rocket 3.6 17:54:33 10° NNW 17:59:47 82° W 18:04:50 10° S
Starlink F 4.5 17:58:00 10° NW 18:00:44 23° NNE 18:02:27 16° ENE
USA 234 3.2 17:55:25 10° ESE 18:01:57 80° NE 18:08:30 10° NW
Starlink G 4.4 18:00:20 10° NW 18:03:05 24° NNE 18:04:42 17° ENE
Cosmos 1356 Rocket 3.4 18:00:01 10° N 18:04:03 59° ENE 18:08:08 10° SSE
Starlink L 4.4 18:02:40 10° NW 18:05:27 24° NNE 18:06:57 18° NE
Cosmos 2218 Rocket 4.1 18:00:00 10° S 18:06:21 88° ESE 18:12:49 10° N
Ariane Rocket 4.1 18:03:26 10° ESE 18:07:19 23° ENE 18:11:13 10° NNE
Starlink A 4.4 18:05:01 10° NW 18:07:49 25° NNE 18:09:13 19° NE
USA 116 4.0 18:05:44 14° NE 18:07:52 29° E 18:10:40 10° SSE
ADEOS Rocket 4.1 18:02:17 10° NNE 18:08:25 32° E 18:14:58 10° SSE
Starlink R 4.4 18:07:22 10° NW 18:10:12 25° NNE 18:11:29 20° NE
CZ-2D R/B 3.8 18:07:18 10° SE 18:10:49 35° ENE 18:14:22 10° N
Starlink K 4.3 18:09:42 10° NW 18:12:33 26° NNE 18:13:44 21° NE
Starlink M 4.3 18:12:02 10° NW 18:14:53 26° NNE 18:15:59 22° NE
Cosmos 1869 4.3 18:13:08 10° NNE 18:16:24 24° ENE 18:18:29 16° ESE
Cosmos 614 Rocket 4.5 18:11:51 10° N 18:16:43 38° ENE 18:21:33 10° SE
SL-16 R/B 3.0 18:11:13 10° NNW 18:16:45 55° WSW 18:22:15 10° S
Cosmos 2221 2.8 18:13:09 10° N 18:17:15 43° ENE 18:21:21 10° SSE
SL-8 R/B 4.0 18:12:41 10° W 18:17:27 55° N 18:20:30 21° ENE
YAOGAN 6 3.3 18:14:58 10° S 18:18:34 56° W 18:22:09 10° NNW
Cosmos 44 Rocket 3.2 18:16:53 10° SSW 18:21:39 65° ESE 18:25:11 17° NE
USA 238 DEB 4.2 18:16:02 10° S 18:22:04 38° ESE 18:26:24 19° ENE
USA 238 4.2 18:16:10 10° S 18:22:12 38° ESE 18:26:28 19° ENE
Cosmos 1076 Rocket 4.3 18:18:31 10° SSE 18:22:13 28° E 18:24:11 20° NE
Cosmos 2227 4.5 18:16:46 10° S 18:22:15 48° ESE 18:27:08 13° NE
CZ-4 R/B 4.5 18:18:58 10° S 18:23:05 81° WSW 18:27:14 10° NNW
Cosmos 1939 Rocket 2.9 18:20:07 10° SSE 18:23:57 51° ENE 18:27:52 10° N
BREEZE-M DEB (TANK) 2.6 18:23:14 10° W 18:25:26 50° NNW 18:26:22 31° NE
Cosmos 2056 Rocket 4.3 18:22:57 10° SSE 18:27:32 31° E 18:29:44 23° ENE
Cosmos 2297 Rocket 4.0 18:23:28 10° WSW 18:28:15 28° NW 18:33:05 10° N
Cosmos 1603 3.7 18:24:29 10° NNW 18:30:05 58° ENE 18:35:37 10° SE
Cosmos 2366 rocket 4.5 18:25:39 10° SSW 18:31:49 64° W 18:38:06 10° N
Cosmos 2263 Rocket 2.5 18:27:07 10° S 18:32:21 44° ESE 18:35:48 20° NE
SKYMED 2 4.4 18:34:57 10° N 18:39:12 53° WNW 18:43:25 10° SSW
Cosmos 2227 Rocket 4.2 18:37:25 10° WSW 18:41:58 24° NW 18:46:33 10° N
NOAA 11 4.2 18:36:36 10° SSE 18:42:05 88° WSW 18:47:37 10° NNW
Cosmos 2058 3.3 18:40:09 10° SSE 18:43:58 40° E 18:43:58 40° E
Cosmos 1140 Rocket 3.8 18:40:48 10° N 18:45:49 43° ENE 18:47:38 32° ESE
Meteor 1-27 4.3 18:41:20 10° NNW 18:46:55 77° W 18:52:29 10° S
ATLAS 5 CENTAUR R/B 4.0 18:42:42 10° NNW 18:47:35 51° NE 19:06:34 10° ESE
Atlas Centaur 2 4.1 18:48:41 10° SSW 18:50:38 13° S 18:52:43 10° SSE
YAOGAN 1 3.2 18:47:37 10° S 18:51:53 58° W 18:56:10 10° NNW
Starlink T 4.0 18:50:23 10° NW 18:52:51 36° N 18:52:51 36° N
DMSP B5D1-3 4.4 18:50:18 10° NNE 18:55:26 85° ESE 19:00:33 10° SSW
Starlink AS 4.3 18:52:46 10° NW 18:54:31 28° NNW 18:54:31 28° NNW
Starlink N 4.0 18:52:31 10° NW 18:54:54 35° N 18:54:54 35° N
Starlink BA 4.3 18:52:59 10° NW 18:54:44 28° NNW 18:54:44 28° NNW
Starlink AU 4.3 18:53:12 10° NW 18:54:57 28° NNW 18:54:57 28° NNW
Starlink AT 4.3 18:53:26 10° NW 18:55:11 28° NNW 18:55:11 28° NNW
Starlink BB 4.3 18:53:38 10° NW 18:55:23 28° NNW 18:55:23 28° NNW
Starlink BC 4.3 18:53:53 10° NW 18:55:36 28° NNW 18:55:36 28° NNW
Starlink BK 4.3 18:54:06 10° NW 18:55:49 28° NNW 18:55:49 28° NNW
Starlink AY 4.3 18:54:19 10° NW 18:56:01 28° NNW 18:56:01 28° NNW
Starlink AW 4.3 18:54:33 10° NW 18:56:15 27° NNW 18:56:15 27° NNW
Starlink BJ 4.3 18:54:45 10° NW 18:56:26 27° NNW 18:56:26 27° NNW
Starlink AV 4.4 18:55:00 10° NW 18:56:41 27° NNW 18:56:41 27° NNW
Starlink Q 4.1 18:54:51 10° NW 18:57:10 35° NNW 18:57:10 35° NNW
Starlink BD 4.4 18:55:14 10° NW 18:56:54 27° NNW 18:56:54 27° NNW
Starlink BE 4.3 18:55:24 10° NW 18:57:07 28° NNW 18:57:07 28° NNW
Starlink BM 4.4 18:55:40 10° NW 18:57:19 27° NNW 18:57:19 27° NNW
Cosmos 1943 3.1 18:52:53 10° NNW 18:58:34 74° ENE 19:03:00 17° SSE
Starlink AX 4.4 18:55:54 10° NW 18:57:33 27° NNW 18:57:33 27° NNW
Starlink BH 4.4 18:56:07 10° NW 18:57:45 27° NNW 18:57:45 27° NNW
Starlink AZ 4.4 18:56:20 10° NW 18:57:58 27° NNW 18:57:58 27° NNW
Starlink BG 4.4 18:56:34 10° NW 18:58:11 27° NNW 18:58:11 27° NNW
Starlink BF 4.4 18:56:47 10° NW 18:58:24 27° NNW 18:58:24 27° NNW
Starlink BL 4.4 18:56:58 10° NW 18:58:38 27° NNW 18:58:38 27° NNW
Starlink AH 4.4 18:57:15 10° NW 18:58:52 26° NNW 18:58:52 26° NNW
Starlink P 4.1 18:57:04 10° NW 18:59:18 34° NNW 18:59:18 34° NNW
Starlink AC 4.5 18:57:28 10° NW 18:59:04 26° NNW 18:59:04 26° NNW
Starlink X 4.5 18:57:41 10° NW 18:59:17 26° NNW 18:59:17 26° NNW
Starlink AE 4.4 18:57:52 10° NW 18:59:32 27° NNW 18:59:32 27° NNW
Starlink Z 4.5 18:58:09 10° NW 18:59:43 26° NNW 18:59:43 26° NNW
Starlink AK 4.5 18:58:21 10° NW 18:59:55 26° NNW 18:59:55 26° NNW
Starlink AQ 4.5 18:58:27 10° NW 19:00:02 26° NNW 19:00:02 26° NNW
Starlink U 4.2 18:59:15 10° NW 19:01:26 33° NNW 19:01:26 33° NNW
H-2A R/B 2.8 19:04:42 33° NNE 19:04:42 33° NNE 19:08:07 10° N
Starlink B 4.3 19:01:29 10° NW 19:03:35 33° NNW 19:03:35 33° NNW
ATLAS 3B R/B 3.9 19:01:24 10° SSE 19:04:32 21° SE 19:04:32 21° SE
ISS -1.8 19:04:27 10° NW 19:06:37 22° NNW 19:06:37 22° NNW
CZ-4 R/B 3.5 19:04:26 10° SSW 19:08:01 29° W 19:11:41 10° NW
USA 267 4.1 19:06:36 22° NE 19:10:19 41° NNW 19:16:20 10° W
Cosmos 1954 Rocket 4.2 19:08:21 10° NNW 19:13:02 50° NE 19:13:02 50° NE
NOSS 3-2 (C) 3.5 19:09:19 10° S 19:14:42 47° ESE 19:14:42 47° ESE
ATLAS CENTAUR R/B 4.3 19:17:48 10° W 19:19:38 13° WSW 19:21:25 10° SW
SJ-11-01 4.1 19:19:15 71° SE 19:19:44 81° ENE 19:24:28 10° N
Timation 1 Rocket 4.3 19:15:26 10° SSW 19:21:25 83° WNW 19:24:15 33° NNE
CENTAUR R/B 3.0 19:16:28 10° S 19:20:42 38° SE 19:20:42 38° SE
Cosmos 407 Rocket 3.9 19:20:46 10° NNW 19:25:59 63° WSW 19:30:26 14° S
Cosmos 1371 Rocket 4.1 19:21:16 10° SSW 19:26:26 71° WNW 19:28:28 37° N
ATLAS 5 CENTAUR R/B 4.3 19:25:02 10° N 19:26:16 12° N 19:26:16 12° N
Cosmos 1190 Rocket 4.2 19:22:37 10° NNW 19:27:55 71° WSW 19:30:52 27° S
NOSS 3-2 (A) 3.3 19:25:33 10° SW 19:31:18 89° NW 19:32:40 57° NE
Cosmos 676 Rocket 4.2 19:35:16 10° NNW 19:39:53 67° NNW 19:39:53 67° NNW
Ariane Rocket 3.7 19:41:01 10° S 19:45:55 51° W 19:50:54 10° NNW
MOS 1 4.4 19:45:38 46° S 19:47:20 74° WSW 19:53:03 10° NNW
Cosmos 1605 Rocket 3.9 19:43:20 10° S 19:56:05 10° N 19:56:07 10° N
ADEOS Rocket 4.0 19:47:25 10° N 19:54:04 55° WNW 20:01:20 10° SW
ARGOS 4.4 20:08:50 34° NNW 20:08:50 34° NNW 20:11:51 10° NNW
CZ-2C R/B 4.5 20:13:15 34° NNW 20:13:15 34° NNW 20:16:27 10° NNW
USA 238 DEB 4.3 20:06:20 10° WSW 20:12:50 51° NW 20:13:54 47° NNW
USA 238 4.3 20:06:27 10° WSW 20:12:57 51° NW 20:13:58 48° NNW
Cosmos 2263 Rocket 3.7 20:11:31 10° WSW 20:16:25 31° NW 20:17:33 29° NNW
H-2A R/B 4.4 20:45:18 19° NW 20:45:18 19° NW 20:47:12 10° NW
